Time,TemperatureF,DewpointF,PressureIn,WindDirection,WindDirectionDegrees,WindSpeedMPH,WindSpeedGustMPH,Humidity,HourlyPrecipIn,Conditions,Clouds,dailyrainin,SoftwareType,DateUTC
2013-02-19 00:00:00,9.0,5.7,30.30,NW,315,14.0,29.0,86,0.00,,,-99.99,Weather View 32 v60,2013-02-19 06:00:00,
2013-02-19 00:15:00,9.0,6.4,30.30,NNW,337,12.0,29.0,89,0.00,,,-99.99,Weather View 32 v60,2013-02-19 06:15:00,
2013-02-19 00:30:00,9.0,7.2,30.30,NNW,337,10.0,26.0,92,0.00,,,-99.99,Weather View 32 v60,2013-02-19 06:30:00,
2013-02-19 00:45:00,9.0,7.4,30.31,NW,315,6.0,26.0,93,0.00,,,-99.99,Weather View 32 v60,2013-02-19 06:45:00,
2013-02-19 00:49:00,9.0,7.4,30.31,NW,315,6.0,26.0,93,0.00,,,-99.99,Weather View 32 v60,2013-02-19 06:49:00,
2013-02-19 01:00:00,9.0,7.6,30.31,NNW,337,9.0,26.0,94,0.00,,,-99.99,Weather View 32 v60,2013-02-19 07:00:00,
2013-02-19 01:15:00,9.0,7.6,30.32,NNE,22,12.0,27.0,94,0.00,,,-99.99,Weather View 32 v60,2013-02-19 07:15:00,
2013-02-19 01:30:00,9.0,7.6,30.31,WNW,292,6.0,29.0,94,0.00,,,-99.99,Weather View 32 v60,2013-02-19 07:30:00,
2013-02-19 01:45:00,10.0,8.4,30.32,NNW,337,14.0,29.0,93,0.00,,,-99.99,Weather View 32 v60,2013-02-19 07:45:00,
2013-02-19 02:00:00,10.0,8.1,30.32,NNW,337,12.0,29.0,92,0.00,,,-99.99,Weather View 32 v60,2013-02-19 08:00:00,
2013-02-19 02:15:00,10.0,7.9,30.31,NW,315,9.0,29.0,91,0.00,,,-99.99,Weather View 32 v60,2013-02-19 08:15:00,
2013-02-19 02:30:00,10.0,8.1,30.33,NNW,337,1.0,29.0,92,0.00,,,-99.99,Weather View 32 v60,2013-02-19 08:30:00,
2013-02-19 02:45:00,10.0,8.1,30.34,NNE,22,17.0,29.0,92,0.00,,,-99.99,Weather View 32 v60,2013-02-19 08:45:00,
2013-02-19 02:50:00,10.0,8.1,30.34,NNE,22,17.0,29.0,92,0.00,,,-99.99,Weather View 32 v60,2013-02-19 08:50:00,
2013-02-19 03:00:00,10.0,7.7,30.33,NW,315,11.0,28.0,90,0.00,,,-99.99,Weather View 32 v60,2013-02-19 09:00:00,
2013-02-19 03:15:00,10.0,7.7,30.34,NNW,337,8.0,28.0,90,0.00,,,-99.99,Weather View 32 v60,2013-02-19 09:15:00,
2013-02-19 03:30:00,9.0,6.4,30.34,WNW,292,15.0,26.0,89,0.00,,,-99.99,Weather View 32 v60,2013-02-19 09:30:00,
2013-02-19 03:45:00,9.0,6.9,30.35,West,270,9.0,28.0,91,0.00,,,-99.99,Weather View 32 v60,2013-02-19 09:45:00,
2013-02-19 03:51:00,9.0,6.9,30.35,West,270,9.0,28.0,91,0.00,,,-99.99,Weather View 32 v60,2013-02-19 09:51:00,
2013-02-19 04:00:00,9.0,6.9,30.36,NNW,337,10.0,31.0,91,0.00,,,-99.99,Weather View 32 v60,2013-02-19 10:00:00,
2013-02-19 04:15:00,8.0,5.4,30.36,WNW,292,12.0,31.0,89,0.00,,,-99.99,Weather View 32 v60,2013-02-19 10:15:00,
2013-02-19 04:30:00,8.0,5.9,30.36,NNW,337,13.0,31.0,91,0.00,,,-99.99,Weather View 32 v60,2013-02-19 10:30:00,
2013-02-19 04:45:00,8.0,5.4,30.38,North,360,8.0,31.0,89,0.00,,,-99.99,Weather View 32 v60,2013-02-19 10:45:00,
2013-02-19 04:52:00,8.0,5.4,30.38,North,360,8.0,31.0,89,0.00,,,-99.99,Weather View 32 v60,2013-02-19 10:52:00,
2013-02-19 05:00:00,8.0,5.9,30.38,NNW,337,17.0,31.0,91,0.00,,,-99.99,Weather View 32 v60,2013-02-19 11:00:00,
2013-02-19 05:15:00,7.0,4.4,30.39,NNW,337,7.0,28.0,89,0.00,,,-99.99,Weather View 32 v60,2013-02-19 11:15:00,
2013-02-19 05:30:00,7.0,4.2,30.40,ENE,67,0.0,28.0,88,0.00,,,-99.99,Weather View 32 v60,2013-02-19 11:30:00,
2013-02-19 05:45:00,6.0,3.7,30.40,NNW,337,12.0,26.0,90,0.00,,,-99.99,Weather View 32 v60,2013-02-19 11:45:00,
2013-02-19 05:52:00,6.0,3.7,30.40,NNW,337,12.0,26.0,90,0.00,,,-99.99,Weather View 32 v60,2013-02-19 11:52:00,
2013-02-19 06:00:00,6.0,4.2,30.41,NNW,337,3.0,31.0,92,0.00,,,-99.99,Weather View 32 v60,2013-02-19 12:00:00,
2013-02-19 06:15:00,6.0,4.4,30.41,NNW,337,3.0,31.0,93,0.00,,,-99.99,Weather View 32 v60,2013-02-19 12:15:00,
2013-02-19 06:30:00,6.0,4.6,30.42,NNE,22,8.0,31.0,94,0.00,,,-99.99,Weather View 32 v60,2013-02-19 12:30:00,
2013-02-19 06:45:00,6.0,4.4,30.42,NNW,337,12.0,31.0,93,0.00,,,-99.99,Weather View 32 v60,2013-02-19 12:45:00,
2013-02-19 06:53:00,6.0,4.4,30.42,NNW,337,12.0,31.0,93,0.00,,,-99.99,Weather View 32 v60,2013-02-19 12:53:00,
2013-02-19 07:00:00,5.0,3.2,30.43,NNW,337,9.0,23.0,92,0.00,,,-99.99,Weather View 32 v60,2013-02-19 13:00:00,
2013-02-19 07:15:00,5.0,3.9,30.44,NNW,337,7.0,23.0,95,0.00,,,-99.99,Weather View 32 v60,2013-02-19 13:15:00,
2013-02-19 07:30:00,4.0,2.9,30.44,NE,45,11.0,25.0,95,0.00,,,-99.99,Weather View 32 v60,2013-02-19 13:30:00,
2013-02-19 07:45:00,4.0,2.7,30.46,NNW,337,8.0,26.0,94,0.00,,,-99.99,Weather View 32 v60,2013-02-19 13:45:00,
2013-02-19 07:53:00,4.0,2.7,30.46,NNW,337,8.0,26.0,94,0.00,,,-99.99,Weather View 32 v60,2013-02-19 13:53:00,
2013-02-19 08:00:00,4.0,2.9,30.46,NNW,337,1.0,26.0,95,0.00,,,-99.99,Weather View 32 v60,2013-02-19 14:00:00,
2013-02-19 08:15:00,4.0,2.4,30.46,NNW,337,15.0,26.0,93,0.00,,,-99.99,Weather View 32 v60,2013-02-19 14:15:00,
2013-02-19 08:30:00,4.0,1.7,30.47,NNW,337,13.0,26.0,90,0.00,,,-99.99,Weather View 32 v60,2013-02-19 14:30:00,
2013-02-19 08:45:00,4.0,1.5,30.48,WNW,292,9.0,28.0,89,0.00,,,-99.99,Weather View 32 v60,2013-02-19 14:45:00,
2013-02-19 08:54:00,4.0,1.5,30.48,WNW,292,9.0,28.0,89,0.00,,,-99.99,Weather View 32 v60,2013-02-19 14:54:00,
2013-02-19 09:00:00,5.0,2.5,30.49,WNW,292,6.0,29.0,89,0.00,,,-99.99,Weather View 32 v60,2013-02-19 15:00:00,
2013-02-19 09:15:00,5.0,1.7,30.48,West,270,12.0,29.0,86,0.00,,,-99.99,Weather View 32 v60,2013-02-19 15:15:00,
2013-02-19 09:30:00,6.0,2.5,30.49,NW,315,1.0,31.0,85,0.00,,,-99.99,Weather View 32 v60,2013-02-19 15:30:00,
2013-02-19 09:45:00,6.0,1.4,30.50,West,270,7.0,31.0,81,0.00,,,-99.99,Weather View 32 v60,2013-02-19 15:45:00,
2013-02-19 09:54:00,6.0,1.4,30.50,West,270,7.0,31.0,81,0.00,,,-99.99,Weather View 32 v60,2013-02-19 15:54:00,
2013-02-19 10:00:00,7.0,2.1,30.50,NW,315,9.0,31.0,80,0.00,,,-99.99,Weather View 32 v60,2013-02-19 16:00:00,
2013-02-19 10:15:00,7.0,1.9,30.50,NNW,337,6.0,32.0,79,0.00,,,-99.99,Weather View 32 v60,2013-02-19 16:15:00,
2013-02-19 10:30:00,7.0,1.0,30.51,NNW,337,9.0,32.0,76,0.00,,,-99.99,Weather View 32 v60,2013-02-19 16:30:00,
2013-02-19 10:45:00,8.0,2.0,30.50,WNW,292,16.0,32.0,76,0.00,,,-99.99,Weather View 32 v60,2013-02-19 16:45:00,
2013-02-19 11:00:00,9.0,2.4,30.50,North,360,9.0,32.0,74,0.00,,,-99.99,Weather View 32 v60,2013-02-19 17:00:00,
2013-02-19 11:15:00,9.0,1.8,30.50,NW,315,9.0,26.0,72,0.00,,,-99.99,Weather View 32 v60,2013-02-19 17:15:00,
2013-02-19 11:30:00,10.0,2.8,30.50,WNW,292,13.0,26.0,72,0.00,,,-99.99,Weather View 32 v60,2013-02-19 17:30:00,
2013-02-19 11:45:00,11.0,2.8,30.48,NNW,337,10.0,26.0,69,0.00,,,-99.99,Weather View 32 v60,2013-02-19 17:45:00,
2013-02-19 12:00:00,11.0,2.8,30.49,NNW,337,15.0,26.0,69,0.00,,,-99.99,Weather View 32 v60,2013-02-19 18:00:00,
2013-02-19 12:15:00,11.0,1.9,30.49,WNW,292,10.0,25.0,66,0.00,,,-99.99,Weather View 32 v60,2013-02-19 18:15:00,
2013-02-19 12:30:00,12.0,2.8,30.48,WNW,292,11.0,25.0,66,0.00,,,-99.99,Weather View 32 v60,2013-02-19 18:30:00,
2013-02-19 12:45:00,13.0,3.5,30.48,NNW,337,13.0,31.0,65,0.00,,,-99.99,Weather View 32 v60,2013-02-19 18:45:00,
2013-02-19 13:00:00,14.0,3.7,30.47,NW,315,10.0,31.0,63,0.00,,,-99.99,Weather View 32 v60,2013-02-19 19:00:00,
2013-02-19 13:15:00,14.0,3.7,30.47,NW,315,7.0,31.0,63,0.00,,,-99.99,Weather View 32 v60,2013-02-19 19:15:00,
2013-02-19 13:30:00,15.0,4.3,30.47,West,270,0.0,31.0,62,0.00,,,-99.99,Weather View 32 v60,2013-02-19 19:30:00,
2013-02-19 13:45:00,15.0,3.6,30.47,WNW,292,9.0,27.0,60,0.00,,,-99.99,Weather View 32 v60,2013-02-19 19:45:00,
2013-02-19 14:00:00,15.0,3.3,30.46,NNW,337,20.0,29.0,59,0.00,,,-99.99,Weather View 32 v60,2013-02-19 20:00:00,
2013-02-19 14:15:00,16.0,4.2,30.47,NW,315,8.0,29.0,59,0.00,,,-99.99,Weather View 32 v60,2013-02-19 20:15:00,
2013-02-19 14:30:00,16.0,4.2,30.46,NNE,22,3.0,29.0,59,0.00,,,-99.99,Weather View 32 v60,2013-02-19 20:30:00,
2013-02-19 14:45:00,15.0,3.6,30.47,NNW,337,10.0,29.0,60,0.00,,,-99.99,Weather View 32 v60,2013-02-19 20:45:00,
2013-02-19 15:00:00,16.0,4.6,30.48,NW,315,14.0,25.0,60,0.00,,,-99.99,Weather View 32 v60,2013-02-19 21:00:00,
2013-02-19 15:15:00,14.0,3.0,30.48,WNW,292,17.0,23.0,61,0.00,,,-99.99,Weather View 32 v60,2013-02-19 21:15:00,
2013-02-19 15:30:00,16.0,4.2,30.47,North,360,5.0,23.0,59,0.00,,,-99.99,Weather View 32 v60,2013-02-19 21:30:00,
2013-02-19 15:45:00,16.0,3.1,30.47,North,360,16.0,23.0,56,0.00,,,-99.99,Weather View 32 v60,2013-02-19 21:45:00,
2013-02-19 16:00:00,17.0,4.0,30.47,NNW,337,0.0,22.0,56,0.00,,,-99.99,Weather View 32 v60,2013-02-19 22:00:00,
2013-02-19 16:15:00,17.0,4.0,30.47,ENE,67,0.0,20.0,56,0.00,,,-99.99,Weather View 32 v60,2013-02-19 22:15:00,
2013-02-19 16:30:00,16.0,3.1,30.47,NNE,22,6.0,19.0,56,0.00,,,-99.99,Weather View 32 v60,2013-02-19 22:30:00,
2013-02-19 16:45:00,16.0,2.7,30.47,North,360,2.0,19.0,55,0.00,,,-99.99,Weather View 32 v60,2013-02-19 22:45:00,
2013-02-19 17:00:00,15.0,3.3,30.48,NNE,22,8.0,19.0,59,0.00,,,-99.99,Weather View 32 v60,2013-02-19 23:00:00,
2013-02-19 17:15:00,14.0,3.0,30.47,NNE,22,0.0,19.0,61,0.00,,,-99.99,Weather View 32 v60,2013-02-19 23:15:00,
2013-02-19 17:30:00,14.0,3.0,30.47,NNW,337,10.0,18.0,61,0.00,,,-99.99,Weather View 32 v60,2013-02-19 23:30:00,
2013-02-19 17:45:00,13.0,3.1,30.48,NNW,337,2.0,18.0,64,0.00,,,-99.99,Weather View 32 v60,2013-02-19 23:45:00,
2013-02-19 18:00:00,12.0,3.5,30.48,NNE,22,0.0,16.0,68,0.00,,,-99.99,Weather View 32 v60,2013-02-20 00:00:00,
2013-02-19 18:15:00,11.0,3.8,30.48,NNE,22,1.0,14.0,72,0.00,,,-99.99,Weather View 32 v60,2013-02-20 00:15:00,
2013-02-19 18:30:00,10.0,3.4,30.48,NNW,337,0.0,14.0,74,0.00,,,-99.99,Weather View 32 v60,2013-02-20 00:30:00,
2013-02-19 18:45:00,10.0,3.7,30.50,North,360,3.0,14.0,75,0.00,,,-99.99,Weather View 32 v60,2013-02-20 00:45:00,
2013-02-19 19:00:00,9.0,3.5,30.50,NNE,22,0.0,13.0,78,0.00,,,-99.99,Weather View 32 v60,2013-02-20 01:00:00,
2013-02-19 19:15:00,9.0,4.4,30.50,North,360,0.0,13.0,81,0.00,,,-99.99,Weather View 32 v60,2013-02-20 01:15:00,
2013-02-19 19:30:00,8.0,3.7,30.50,North,360,0.0,13.0,82,0.00,,,-99.99,Weather View 32 v60,2013-02-20 01:30:00,
2013-02-19 19:45:00,8.0,3.9,30.51,NNW,337,6.0,13.0,83,0.00,,,-99.99,Weather View 32 v60,2013-02-20 01:45:00,
2013-02-19 20:01:00,7.0,3.5,30.50,North,360,0.0,13.0,85,0.00,,,-99.99,Weather View 32 v60,2013-02-20 02:01:00,
2013-02-19 20:15:00,7.0,4.0,30.51,NNW,337,0.0,13.0,87,0.00,,,-99.99,Weather View 32 v60,2013-02-20 02:15:00,
2013-02-19 20:30:00,6.0,3.2,30.52,NNE,22,0.0,13.0,88,0.00,,,-99.99,Weather View 32 v60,2013-02-20 02:30:00,
2013-02-19 20:45:00,6.0,3.7,30.52,North,360,0.0,12.0,90,0.00,,,-99.99,Weather View 32 v60,2013-02-20 02:45:00,
2013-02-19 21:00:00,6.0,3.7,30.53,North,360,0.0,12.0,90,0.00,,,-99.99,Weather View 32 v60,2013-02-20 03:00:00,
2013-02-19 21:15:00,5.0,3.4,30.53,North,360,0.0,12.0,93,0.00,,,-99.99,Weather View 32 v60,2013-02-20 03:15:00,
2013-02-19 21:30:00,5.0,3.9,30.53,NNW,337,0.0,12.0,95,0.00,,,-99.99,Weather View 32 v60,2013-02-20 03:30:00,
2013-02-19 21:45:00,4.0,3.1,30.54,NNW,337,0.0,12.0,96,0.00,,,-99.99,Weather View 32 v60,2013-02-20 03:45:00,
2013-02-19 22:00:00,4.0,3.3,30.54,NNE,22,0.0,10.0,97,0.00,,,-99.99,Weather View 32 v60,2013-02-20 04:00:00,
2013-02-19 22:15:00,4.0,3.3,30.54,NNW,337,0.0,10.0,97,0.00,,,-99.99,Weather View 32 v60,2013-02-20 04:15:00,
2013-02-19 22:30:00,4.0,3.6,30.55,NNW,337,0.0,10.0,98,0.00,,,-99.99,Weather View 32 v60,2013-02-20 04:30:00,
2013-02-19 22:45:00,3.0,2.8,30.56,North,360,0.0,10.0,99,0.00,,,-99.99,Weather View 32 v60,2013-02-20 04:45:00,
2013-02-19 23:00:00,3.0,3.0,30.56,NNW,337,0.0,10.0,100,0.00,,,-99.99,Weather View 32 v60,2013-02-20 05:00:00,
2013-02-19 23:15:00,2.0,2.0,30.56,ENE,67,0.0,7.0,100,0.00,,,-99.99,Weather View 32 v60,2013-02-20 05:15:00,
2013-02-19 23:30:00,2.0,2.0,30.56,NE,45,0.0,7.0,100,0.00,,,-99.99,Weather View 32 v60,2013-02-20 05:30:00,
2013-02-19 23:45:00,2.0,2.0,30.55,ENE,67,0.0,7.0,100,0.00,,,-99.99,Weather View 32 v60,2013-02-20 05:45:00,